Theta_e
298 299 297 298 297 295 296 299 299 297 297 298 297 296 297 296 294 293 292 292 293 293 294 293 293 292 292 291 290 289 289 290 289 288 286 287 287 287 287 288 289 290 291 291
296 297 298 298 299 299 298 294 294 296 297 298 296 296 296 294 294 294 295 294 293 292 291 292 292 292 292 291 289 288 288 289 289 287 286 286 286 286 287 287 289 290 290 292
296 300 298 299 299 299 298 295 294 298 297 294 294 295 293 294 295 296 294 293 292 292 292 291 291 291 292 291 289 288 287 288 288 288 286 285 285 286 287 289 288 289 290 291
296 299 300 300 300 297 296 297 298 298 293 292 293 295 295 294 294 296 295 293 292 291 290 290 290 291 291 291 289 288 286 287 288 287 285 285 285 285 286 286 287 288 289 290
297 300 300 298 299 296 297 296 297 293 291 290 290 291 295 294 295 294 294 293 292 290 289 289 290 290 291 290 289 287 285 285 287 286 284 284 284 284 284 286 287 288 289 290
293 296 297 298 296 296 293 291 289 286 283 289 285 290 295 294 294 295 295 293 292 291 289 288 289 290 290 289 289 286 284 285 286 285 284 283 283 283 284 286 286 287 288 289
292 296 295 296 297 295 292 286 290 292 290 295 277 290 296 293 292 292 293 291 290 289 288 288 288 288 288 288 288 284 283 284 285 284 283 283 282 283 283 284 285 287 288 289
290 296 291 295 295 291 293 287 290 288 291 290 280 290 295 291 291 290 289 289 289 289 289 288 288 287 287 287 285 283 282 283 284 283 282 282 282 282 282 284 285 286 287 288
290 292 293 296 295 292 290 290 287 282 275 284 286 287 290 291 286 290 290 290 290 289 288 287 286 286 286 285 283 281 282 283 283 282 282 282 282 282 283 283 284 286 287 288
291 292 288 293 294 291 289 289 290 285 288 288 288 281 293 289 286 283 287 285 285 286 286 285 284 285 284 283 281 280 283 282 282 282 282 282 282 282 282 283 285 286 287 288
286 287 289 294 291 292 292 290 286 286 289 290 287 294 285 286 285 285 285 285 284 284 284 283 282 282 282 281 280 280 283 282 282 282 282 281 281 282 283 284 285 287 287 289
292 290 288 290 292 292 291 290 292 293 289 285 289 293 285 284 277 275 283 286 285 281 282 280 280 280 280 279 279 281 283 280 282 282 281 282 282 283 283 284 286 287 289 290
294 287 288 296 292 291 292 292 292 289 291 288 291 297 284 276 279 283 281 286 287 281 281 277 277 278 277 278 278 281 282 280 282 282 281 282 283 283 285 286 287 288 289 290
296 293 292 298 294 286 292 294 293 293 289 294 294 297 297 297 296 293 288 285 283 280 278 275 275 273 276 277 278 281 282 282 282 282 282 282 283 284 285 286 287 288 288 289
296 291 292 290 289 285 289 289 293 292 292 294 299 293 296 297 296 294 285 287 285 283 278 277 271 272 275 277 278 281 281 283 282 282 283 283 284 285 286 286 287 287 287 288
293 293 284 285 292 292 291 292 292 293 293 291 294 294 294 294 292 288 285 283 283 282 279 277 269 271 273 277 278 281 281 283 282 282 283 283 284 284 285 286 286 286 286 286
294 288 286 291 285 284 291 290 293 287 284 290 289 292 279 288 284 283 285 280 282 282 279 276 273 273 277 278 278 282 281 283 283 283 283 283 283 284 284 285 285 285 285 285
294 290 292 290 281 296 296 290 288 288 288 286 286 286 289 287 285 281 280 281 283 280 276 275 272 277 278 278 279 282 282 284 283 283 283 283 283 283 284 284 284 284 284 284
293 295 293 294 282 290 296 289 289 290 292 289 290 290 288 283 284 288 282 280 281 277 275 277 280 280 279 279 279 282 282 284 283 282 283 283 283 283 283 283 283 283 283 284
292 296 298 283 288 290 294 291 288 289 293 290 289 290 288 287 292 290 288 284 284 283 281 282 280 280 279 279 279 281 282 283 283 282 283 283 284 283 283 283 283 283 283 283
290 292 296 284 290 287 289 290 288 293 297 289 288 289 287 290 291 290 285 286 286 285 283 283 281 280 280 279 279 281 281 282 282 283 282 283 284 284 284 284 284 283 283 282
289 290 290 284 289 291 287 288 292 294 292 289 288 288 288 288 287 287 286 285 284 284 283 283 280 280 280 279 278 279 280 282 282 282 282 283 283 283 283 284 283 283 283 282
291 293 289 291 291 290 288 291 290 289 290 290 290 288 288 287 286 286 286 286 285 284 284 283 281 281 280 279 279 278 280 282 282 281 282 282 282 282 282 282 282 282 282 281
283 284 288 290 292 289 288 289 288 287 288 289 288 287 287 288 286 285 284 284 283 282 282 283 280 279 279 280 278 279 279 281 281 281 280 280 280 280 280 280 280 280 280 279
290 287 287 290 288 288 291 289 291 290 288 287 287 286 288 286 287 286 287 284 285 284 283 282 279 279 281 281 279 279 279 281 280 280 280 279 279 279 279 279 280 279 279 279
285 287 292 295 292 294 296 292 291 290 289 288 288 289 284 285 287 286 285 286 285 283 283 279 279 280 281 281 280 279 279 280 280 279 279 279 280 280 280 280 280 281 280 280
Wind_Speed
4 5 1 1 1 3 5 2 2 4 2 4 5 11 23 14 8 9 10 7 6 6 8 11 7 5 7 9 13 17 21 25 27 27 22 19 20 23 25 25 25 24 22 22
6 2 1 5 3 3 3 2 4 4 1 3 7 20 18 8 5 4 2 4 4 4 5 9 8 7 9 12 15 19 22 25 26 25 23 20 23 23 26 29 25 22 24 21
4 1 3 1 1 2 1 3 2 3 7 3 7 8 5 3 3 3 3 3 3 7 7 6 9 9 11 14 17 21 23 26 27 27 27 23 22 22 21 19 21 22 22 24
2 1 2 1 1 3 1 1 1 2 4 3 5 5 7 4 7 4 5 4 6 7 5 5 9 13 13 15 17 21 23 26 26 26 23 20 22 24 24 26 25 24 24 26
4 3 2 1 0 2 1 3 3 3 4 3 5 2 7 4 5 4 4 6 7 8 8 8 10 12 15 16 18 21 23 27 26 26 24 23 24 24 25 26 26 26 26 24
3 1 2 1 3 3 4 4 5 3 3 2 3 2 6 3 4 2 2 3 6 6 8 9 15 13 15 16 19 22 23 26 27 27 24 23 25 26 26 26 27 27 26 25
5 2 3 1 2 2 4 5 3 5 4 4 1 1 11 6 5 5 7 10 7 6 7 7 7 11 15 19 20 22 22 25 27 27 24 24 25 25 26 26 25 24 24 24
3 5 2 4 2 4 2 5 4 5 2 5 2 6 6 7 5 7 8 8 7 8 6 8 10 11 15 19 19 21 22 24 27 26 23 23 23 22 23 24 24 26 25 26
3 4 1 4 2 3 2 1 2 7 2 3 2 8 12 5 6 4 5 6 7 6 7 8 10 11 17 16 18 20 21 24 24 23 23 23 22 22 23 25 27 27 26 27
4 3 1 2 1 5 4 3 4 3 2 5 5 6 6 5 5 4 4 6 8 7 9 8 8 15 17 14 17 19 20 23 23 21 22 22 24 24 24 27 27 27 28 27
4 3 4 1 4 7 1 1 4 3 3 4 3 7 8 8 6 8 9 8 9 9 11 8 12 14 12 13 16 17 21 22 19 20 24 23 25 22 22 24 26 26 26 25
4 4 3 7 0 2 3 5 4 4 5 2 1 9 0 7 5 4 10 10 11 8 8 8 12 12 11 13 16 17 22 19 19 24 21 23 25 24 19 19 22 23 24 22
5 1 3 6 3 3 3 5 3 3 2 7 4 8 3 3 5 8 10 13 11 7 10 7 7 7 10 13 15 17 21 19 21 23 21 23 23 20 19 18 20 19 17 17
5 4 6 6 5 4 3 4 7 5 3 5 14 24 21 24 18 12 9 9 9 9 9 7 6 6 9 11 13 15 20 20 22 22 22 20 22 20 19 17 16 15 14 13
3 5 3 5 6 5 6 7 11 12 10 8 27 10 23 22 19 17 7 11 11 11 7 7 4 5 11 11 11 12 15 20 21 21 21 21 21 18 17 16 13 12 12 12
4 3 2 5 6 5 6 14 19 18 14 15 22 26 27 26 16 12 11 9 12 11 8 8 4 7 11 9 10 12 15 19 19 19 19 20 20 18 17 15 15 14 14 14
6 5 3 5 4 6 8 11 14 6 5 9 7 15 3 10 8 8 10 7 10 11 8 8 6 9 10 7 7 10 13 16 17 17 19 20 19 18 17 16 16 17 18 19
6 5 3 3 3 4 6 4 6 8 7 15 9 9 13 9 9 11 10 12 11 7 7 7 8 10 7 5 5 7 8 12 15 17 18 18 18 17 17 17 18 19 20 22
6 5 3 2 4 8 7 4 7 8 7 14 17 17 9 5 4 7 5 6 8 6 5 7 6 6 5 5 3 4 6 8 12 15 16 15 15 15 16 17 17 18 20 23
4 6 5 3 4 7 5 3 5 4 6 8 13 11 6 3 5 5 4 4 7 10 8 9 10 8 7 5 4 3 3 5 9 12 12 12 12 13 14 14 16 17 19 19
4 3 13 5 6 8 11 5 4 5 7 6 9 7 8 5 6 5 4 6 6 8 10 11 11 11 9 6 5 5 4 2 5 7 7 8 9 10 12 13 14 15 18 21
9 10 5 3 5 10 9 6 8 6 1 5 7 7 7 9 9 8 8 9 8 8 11 14 15 14 10 8 7 7 7 3 3 3 5 5 6 7 8 10 12 14 17 21
4 8 7 13 10 5 11 8 14 2 4 5 5 7 8 8 8 10 8 9 8 13 17 17 20 16 13 11 10 9 7 5 2 0 1 3 4 6 7 10 12 14 16 19
4 4 4 2 9 10 9 15 8 6 11 9 8 8 6 12 10 9 9 9 8 12 17 20 20 20 19 16 14 11 8 7 4 3 3 4 6 9 11 13 15 17 17 17
5 11 7 13 2 5 10 12 16 14 11 10 12 10 13 11 13 12 11 10 10 14 16 20 24 25 26 18 17 14 12 11 8 6 7 9 11 13 16 18 18 19 17 17
6 8 8 10 8 7 19 9 11 12 13 13 12 13 10 11 14 11 11 14 14 14 16 18 26 28 27 21 19 17 15 14 12 12 12 12 12 12 14 16 17 15 14 13
Wind_Direction
14 63 69 185 40 91 122 150 251 260 6 307 256 278 284 295 239 259 260 264 248 225 200 182 206 259 293 315 327 332 335 338 338 334 328 321 313 310 305 299 296 293 281 286
21 101 138 118 86 92 71 115 275 283 211 320 330 297 292 296 268 230 268 277 235 179 184 210 236 269 302 318 329 331 333 332 331 329 322 311 308 303 298 296 295 295 283 278
133 131 139 142 115 86 201 175 266 271 329 69 320 295 322 305 311 283 252 242 206 200 203 229 249 275 308 317 326 327 325 324 325 329 323 311 304 300 295 291 292 288 282 280
143 311 161 74 216 119 317 167 59 14 41 278 22 279 301 318 306 273 272 246 238 227 237 245 264 283 303 313 317 318 319 318 322 327 314 302 297 293 291 290 286 285 284 281
253 154 147 112 313 121 145 47 63 75 97 37 345 59 271 348 323 311 265 251 252 244 238 248 254 277 305 309 313 318 317 316 323 324 313 302 295 292 293 287 289 288 286 284
187 308 52 72 58 58 118 72 44 61 93 11 251 137 277 218 203 279 244 287 287 281 255 252 269 290 308 310 315 319 317 318 323 321 307 295 292 294 292 289 288 287 285 283
349 349 335 27 96 57 75 53 330 351 6 232 268 310 247 269 251 225 276 288 285 294 288 274 271 286 308 318 319 320 320 316 323 318 304 296 291 291 287 287 283 284 286 284
110 326 28 352 89 176 75 144 152 234 271 277 14 238 249 218 209 235 252 265 288 298 292 279 277 280 307 315 316 321 324 318 322 313 301 297 293 288 286 285 282 281 281 280
125 286 332 30 63 88 236 53 157 100 76 26 253 283 287 259 273 242 257 276 269 293 310 302 302 290 310 316 320 324 324 321 315 307 303 303 298 295 289 287 284 279 279 279
199 3 267 243 113 39 138 140 48 8 342 302 285 277 240 292 266 303 282 273 282 294 307 308 297 298 317 316 321 326 331 324 316 307 307 303 300 297 293 289 285 284 281 278
136 98 288 59 199 179 85 8 46 124 130 191 293 261 215 233 229 265 287 281 271 289 295 303 298 310 311 318 327 332 335 329 317 318 320 309 302 299 302 291 291 287 286 287
193 140 219 221 133 138 158 186 163 134 242 221 178 270 217 240 245 230 274 280 285 266 284 291 293 310 314 327 331 338 340 324 332 329 319 312 316 314 303 297 295 301 297 295
183 313 357 335 16 6 212 194 167 126 99 200 168 265 270 249 299 254 254 283 293 290 306 291 298 307 312 322 332 341 338 329 340 335 329 327 326 322 314 309 311 316 314 311
163 178 188 207 207 135 197 190 209 167 153 233 230 273 282 287 294 294 289 268 279 285 290 294 298 298 305 318 330 340 338 347 344 342 341 337 337 338 335 330 332 335 336 337
169 216 225 256 239 194 226 204 214 204 213 213 272 237 272 285 291 292 271 295 299 300 305 296 284 289 301 314 331 334 345 352 347 346 347 352 353 354 355 354 355 358 3 5
183 239 113 285 274 268 265 243 234 237 236 250 259 277 270 274 287 280 272 277 287 290 283 282 271 272 277 303 322 326 347 354 351 350 354 2 4 6 9 13 20 26 26 28
165 152 122 257 337 336 293 236 218 185 208 194 186 233 330 301 284 263 279 244 268 281 277 275 255 255 272 303 311 330 345 352 358 360 6 10 12 16 21 26 33 36 36 43
165 155 177 254 4 254 245 208 177 184 209 215 264 267 264 246 265 266 241 251 276 265 267 253 238 245 261 281 297 325 353 356 3 9 12 14 18 24 30 42 49 52 55 48
164 160 180 235 201 305 288 182 161 172 272 204 220 247 260 282 283 294 229 214 237 232 236 247 241 231 244 270 279 310 349 1 7 13 12 15 23 30 39 47 52 57 53 54
241 226 200 127 200 238 240 185 157 131 282 196 183 217 223 168 334 271 255 216 242 241 227 227 228 235 249 262 250 261 311 356 357 3 3 17 30 37 43 50 58 63 64 55
166 196 216 194 241 282 248 159 154 107 240 164 182 207 167 201 217 257 273 265 254 259 230 213 218 224 243 238 231 235 252 295 333 344 354 16 35 46 53 60 63 67 68 65
166 170 191 143 208 275 171 84 186 209 250 175 191 213 212 231 267 271 263 263 247 245 229 213 216 227 233 230 224 226 240 244 299 330 345 14 33 42 52 62 63 59 60 57
228 194 185 190 208 222 198 208 214 150 215 221 206 232 219 238 249 271 270 269 257 244 236 226 220 224 223 224 224 218 226 214 225 279 342 30 52 61 66 73 72 71 70 65
259 173 218 111 202 231 215 244 255 223 236 251 240 249 235 256 258 250 261 263 253 244 230 227 214 221 223 222 225 222 209 197 184 163 134 113 94 87 83 83 83 81 77 76
196 153 182 252 220 320 254 231 244 247 238 248 258 236 247 248 258 253 265 260 257 249 241 226 213 220 226 217 220 214 204 194 186 176 152 132 116 107 96 83 81 81 74 75
187 177 192 238 148 198 258 216 226 228 233 232 235 264 239 224 245 244 250 252 254 250 243 225 224 225 226 212 213 209 200 194 185 177 165 151 138 127 116 111 100 80 83 81